Weather History for Hayward, WI

Change the Weather History Date:

Monday, July 21, 2014

  Actual Average Record
Temperature  
Mean Temperature 80 °F -  
Max Temperature 89 °F 85 °F 91 °F (2004)
Min Temperature 73 °F 58 °F 46 °F (2000)
Cooling Degree Days 16    
Growing Degree Days 30 (Base 50)    
Moisture  
Dew Point 69 °F    
Average Humidity 71    
Maximum Humidity 79    
Minimum Humidity 55    
Precipitation  
Precipitation 0.00 in - - ()
Sea Level Pressure  
Sea Level Pressure 29.90 in    
Wind  
Wind Speed 10 mph (South)    
Max Wind Speed 15 mph    
Max Gust Speed 23 mph    
Visibility 10 miles    
Events      
Averages and records for this station are not official NWS values.
T = Trace of Precipitation, MM = Missing Value Source: NWS Daily Summary

Daily Weather History Graph

Daily Weather History Graph

Search for Another Location

Airport:

Trip Planner

Search our weather history database for the weather conditions in past years. The results will help you decide how hot, cold, wet, or windy it might be!

Date:

Astronomy

Jul. 21, 2014 Rise Set
Actual Time 5:35 AM CDT 8:48 PM CDT
Civil Twilight 4:59 AM CDT 9:24 PM CDT
Nautical Twilight 4:12 AM CDT 10:10 PM CDT
Astronomical Twilight 3:14 AM CDT 11:08 PM CDT
Moon 1:31 AM CDT (7/21) 4:27 PM CDT (7/21)
Length of Visible Light 16h 24m
Length of Day
15h 12m
Waning Crescent, 24% of the Moon is Illuminated
Jul 21
Waning Crescent
Jul 26
New
Aug 3
First Quarter
Aug 10
Full
Aug 17
Last Quarter

Hourly Weather History & Observations

Time (CDT) Temp. Heat Index Dew Point Humidity Pressure Visibility Wind Dir Wind Speed Gust Speed Precip Events Conditions
12:53 AM 75.0 °F - 64.9 °F 71% 29.88 in 10.0 mi South 10.4 mph - N/A   Overcast
1:53 AM 73.9 °F - 64.9 °F 73% 29.88 in 10.0 mi SSW 11.5 mph - N/A   Overcast
2:53 AM 75.0 °F - 64.9 °F 71% 29.88 in 10.0 mi SSW 12.7 mph - N/A   Overcast
3:53 AM 73.9 °F - 64.9 °F 73% 29.88 in 10.0 mi SSW 10.4 mph - N/A   Overcast
4:53 AM 73.0 °F - 66.0 °F 79% 29.90 in 10.0 mi South 9.2 mph - N/A   Overcast
5:53 AM 73.0 °F - 66.0 °F 79% 29.92 in 10.0 mi South 4.6 mph - N/A   Overcast
6:16 AM 73.0 °F - 66.0 °F 79% 29.94 in 10.0 mi South 6.9 mph - N/A   Overcast
6:27 AM 73.0 °F - 66.0 °F 79% 29.93 in 10.0 mi South 8.1 mph - N/A   Overcast
6:53 AM 73.0 °F - 66.0 °F 79% 29.92 in 10.0 mi South 6.9 mph - N/A   Partly Cloudy
7:53 AM 75.0 °F - 66.9 °F 76% 29.92 in 10.0 mi South 11.5 mph - N/A   Clear
8:53 AM 77.0 °F - 66.9 °F 71% 29.93 in 10.0 mi SSW 10.4 mph - N/A   Clear
9:53 AM 79.0 °F - 68.0 °F 69% 29.94 in 9.0 mi SSW 9.2 mph - N/A   Clear
10:53 AM 80.1 °F 83.2 °F 70.0 °F 71% 29.94 in 10.0 mi South 5.8 mph - N/A   Clear
11:53 AM 84.0 °F 88.4 °F 70.0 °F 63% 29.93 in 10.0 mi SW 9.2 mph - N/A   Clear
12:53 PM 86.0 °F 90.1 °F 69.1 °F 57% 29.93 in 10.0 mi South 13.8 mph 20.7 mph N/A   Clear
1:53 PM 87.1 °F 91.3 °F 69.1 °F 55% 29.92 in 10.0 mi SSW 13.8 mph - N/A   Partly Cloudy
2:53 PM 88.0 °F 92.9 °F 70.0 °F 55% 29.91 in 10.0 mi SSW 12.7 mph - N/A   Clear
3:53 PM 88.0 °F 93.8 °F 71.1 °F 57% 29.90 in 10.0 mi South 12.7 mph 23.0 mph N/A   Clear
4:53 PM 87.1 °F 92.8 °F 71.1 °F 59% 29.90 in 10.0 mi SW 12.7 mph - N/A   Clear
5:53 PM 87.1 °F 93.6 °F 72.0 °F 61% 29.90 in 10.0 mi South 12.7 mph - N/A   Partly Cloudy
6:53 PM 84.0 °F 91.2 °F 73.9 °F 72% 29.89 in 10.0 mi South 11.5 mph - N/A   Overcast
7:53 PM 82.0 °F 87.9 °F 73.9 °F 76% 29.89 in 10.0 mi South 10.4 mph - N/A   Partly Cloudy
8:53 PM 80.1 °F 84.2 °F 73.0 °F 79% 29.87 in 10.0 mi SSE 6.9 mph - N/A   Overcast
9:53 PM 80.1 °F 84.2 °F 73.0 °F 79% 29.85 in 10.0 mi SSE 11.5 mph 17.3 mph N/A   Clear
10:53 PM 79.0 °F - 72.0 °F 79% 29.84 in 10.0 mi South 11.5 mph 21.9 mph N/A   Clear
11:53 PM 79.0 °F - 71.1 °F 77% 29.83 in 10.0 mi South 15.0 mph 21.9 mph N/A   Mostly Cloudy